Tracking 32420 objects as of 9-Dec-2025
HD Live streaming from Space Station
objects crossing your sky now

O3B FM4

Track O3B FM4 now!
10-day predictions
O3B FM4 is classified as:


NORAD ID: 39189
Int'l Code: 2013-031B
Perigee: 8,066.6 km
Apogee: 8,079.5 km
Inclination: 0.1 °
Period: 287.9 minutes
Semi major axis: 14444 km
RCS: Unknown
Launch date: June 25, 2013
Source: O3b Networks (O3B)
Launch site: FRENCH GUIANA (FRGUI)

O3b satellites will reach customers across the planet between 45 degrees north and south latitude. O3b offers the benefits of fiber-optic lines without the costs to maintain them.
Your satellite tracking list
Your tracking list is empty




NASA's NSSDC Master Catalog

Two Line Element Set (TLE):
1 39189U 13031B   25341.26426753 -.00000020  00000-0  00000+0 0  9990
2 39189   0.0602 353.5029 0004487 286.9755  79.4728  5.00115061227458
Source of the keplerian elements: AFSPC